Location: Christian Reformed Church
(43.0975°N, 93.8113°W)
Time: 03:20:27
(UTC+00:00)

Cosmos 2322 - Pass Details

Date: 13 December 2025
Orbit: 840 x 853 km, 71.0° (Epoch: 13 January)

Event Time Altitude Azimuth Distance (km) Brightness Sun altitude
Exits shadow 12:30:04 - 339° (NNW) 3,076 6.2 -12.1°
Reaches altitude 10° 12:31:41 10° 341° (NNW) 2,470 5.8 -11.8°
Maximum altitude 12:37:18 62° 62° (ENE) 950 4.2 -10.8°
Drops below altitude 10° 12:42:53 10° 143° (SE) 2,462 7.1 -9.9°
Sets 12:45:22 0° 147° (SSE) 3,395 7.9 -9.5°
